If you wish to contribute or participate in the discussions about articles you are invited to join SKYbrary as a registered user

La Gomera

From SKYbrary Wiki
GCGM
Revision as of 19:01, 28 November 2011 by Timo.Kouwenhoven (Talk | contribs)

(diff) ← Older revision | Latest revision (diff) | Newer revision → (diff)
Airport
ICAO: GCGM
Summary
Name La Gomera
Region Europe
Territory Canary Islands ES.gif
Location San Sebastián de la Gomera
Serving
Coordinates 28° 1' 50.407", -17° 12' 45.0731"
Close to Canarias Sea
Runways
Designator Length Width Surface
9/27 1500 m4,921.26 ft 30 m98.425 ft ASP
METAR
Observation GCGM 101100Z 20003KT 160V260 9999 FEW014 SCT024 19/15 Q1030 RMK R09/VRB02KT ARP/VRB02KT
Station La Gomera
Date/Time 10 February 2016 11:00:00
Wind direction 200°
Wind speed 03 kts
Lowest cloud amount few clouds
Temperature 19°C
Dew point 15°C
Humidity 77%
QNH 1030 hPa
Weather condition n/a

WX
Tag(s) Volcanic Ash

La Gomera Airport (IATA: GMZ) is an airport located near the village of Alajeró, Spain, 34 km18.359 nm
34,000 m
111,548.557 ft
southwest by road from the Gomera island's capital city, San Sebastián de la Gomera.